YO8RBY-13 Weather Reports


Display with metric or nautical units.
time (UTC)temp
F
wind
direction
speed
MPH
gust
MPH
rain 1hr
in
rain 24hr
in
rain mn
in
humidity
%
barometer
mb
20200125184332 37 315 5.0 5.0 0.00 0.00 0.00 61 977.0
20200125183831 37 315 5.0 5.0 0.00 0.00 0.00 61 977.3
20200125183330 36 315 5.0 5.0 0.00 0.00 0.00 62 977.3
20200125182828 36 315 5.0 5.0 0.00 0.00 0.00 63 977.0
20200125182327 36 315 5.0 5.0 0.00 0.00 0.00 63 977.0
20200125181826 36 315 5.0 5.0 0.00 0.00 0.00 63 977.0
20200125181325 36 315 5.0 5.0 0.00 0.00 0.00 62 977.0
20200125180824 37 315 5.0 5.0 0.00 0.00 0.00 61 977.0
20200125180322 37 315 5.0 5.0 0.00 0.00 0.00 61 977.0
20200125175822 37 315 5.0 8.0 0.00 0.00 0.00 61 977.0
20200125175321 37 315 5.0 8.0 0.00 0.00 0.00 62 977.0
20200125174819 36 315 5.0 5.0 0.00 0.00 0.00 63 977.0
20200125174318 36 315 5.0 5.0 0.00 0.00 0.00 62 976.6
20200125173817 36 315 5.0 5.0 0.00 0.00 0.00 62 976.6
20200125173316 37 315 5.0 5.0 0.00 0.00 0.00 60 977.0
20200125172815 37 315 5.0 5.0 0.00 0.00 0.00 60 976.6
20200125172314 37 315 5.0 5.0 0.00 0.00 0.00 60 976.6
20200125171813 37 315 5.0 5.0 0.00 0.00 0.00 58 976.6
20200125171312 38 315 5.0 5.0 0.00 0.00 0.00 58 976.6
20200125170811 38 315 5.0 5.0 0.00 0.00 0.00 58 976.6
20200125170310 38 315 5.0 5.0 0.00 0.00 0.00 58 976.6
20200125165809 37 315 5.0 5.0 0.00 0.00 0.00 60 976.6
20200125165308 35 315 5.0 5.0 0.00 0.00 0.00 62 976.6
20200125164807 35 315 5.0 5.0 0.00 0.00 0.00 59 976.6
20200125164304 36 315 5.0 5.0 0.00 0.00 0.00 57 976.6
20200125163803 36 315 5.0 5.0 0.00 0.00 0.00 55 976.6
20200125163302 38 315 5.0 5.0 0.00 0.00 0.00 54 976.6
20200125162802 38 315 5.0 5.0 0.00 0.00 0.00 55 976.6
20200125162300 38 315 5.0 5.0 0.00 0.00 0.00 56 976.6
20200125161759 38 315 5.0 5.0 0.00 0.00 0.00 57 976.6
20200125161259 38 315 5.0 5.0 0.00 0.00 0.00 54 976.6
20200125160757 38 315 5.0 5.0 0.00 0.00 0.00 51 976.6
20200125160256 38 315 5.0 5.0 0.00 0.00 0.00 51 976.6
20200125155755 38 315 5.0 5.0 0.00 0.00 0.00 51 976.6
20200125155254 39 315 5.0 5.0 0.00 0.00 0.00 50 976.6
20200125154753 40 315 5.0 5.0 0.00 0.00 0.00 49 976.6
20200125154252 40 315 5.0 5.0 0.00 0.00 0.00 48 976.6
20200125153751 40 315 5.0 5.0 0.00 0.00 0.00 48 976.6
20200125153250 40 315 5.0 5.0 0.00 0.00 0.00 48 976.3
20200125152748 40 315 5.0 5.0 0.00 0.00 0.00 47 976.3
20200125152247 40 315 5.0 5.0 0.00 0.00 0.00 47 976.3
20200125151746 41 315 5.0 5.0 0.00 0.00 0.00 46 976.3
20200125151245 41 315 5.0 5.0 0.00 0.00 0.00 45 976.3
20200125150742 41 315 5.0 5.0 0.00 0.00 0.00 44 976.0
20200125150241 42 315 5.0 5.0 0.00 0.00 0.00 44 976.0
20200125145740 42 315 5.0 5.0 0.00 0.00 0.00 43 976.0
20200125145239 43 315 5.0 5.0 0.00 0.00 0.00 42 976.0
20200125144738 44 315 5.0 5.0 0.00 0.00 0.00 40 976.0
20200125144237 45 315 5.0 5.0 0.00 0.00 0.00 40 976.0
20200125143736 46 315 5.0 5.0 0.00 0.00 0.00 39 976.0
20200125143235 46 315 5.0 5.0 0.00 0.00 0.00 37 976.0
20200125142734 47 315 5.0 5.0 0.00 0.00 0.00 36 975.6
20200125142233 48 315 5.0 5.0 0.00 0.00 0.00 36 975.6
20200125141732 50 315 5.0 5.0 0.00 0.00 0.00 35 975.6
20200125141231 51 315 5.0 5.0 0.00 0.00 0.00 35 975.6
20200125140730 52 315 5.0 5.0 0.00 0.00 0.00 34 975.6
20200125140228 53 315 5.0 5.0 0.00 0.00 0.00 33 975.6
20200125135727 53 315 5.0 5.0 0.00 0.00 0.00 33 975.6
20200125135226 53 315 5.0 5.0 0.00 0.00 0.00 33 975.6
20200125134724 53 315 5.0 5.0 0.00 0.00 0.00 33 975.6
20200125134223 53 315 5.0 5.0 0.00 0.00 0.00 32 975.6
20200125133722 54 315 5.0 5.0 0.00 0.00 0.00 32 975.6
20200125133221 54 315 5.0 5.0 0.00 0.00 0.00 31 975.6
20200125132720 54 315 5.0 5.0 0.00 0.00 0.00 32 975.6
20200125132219 54 315 5.0 5.0 0.00 0.00 0.00 31 975.6
20200125131718 54 315 5.0 5.0 0.00 0.00 0.00 31 975.6
20200125131216 54 315 5.0 5.0 0.00 0.00 0.00 31 975.6
20200125130715 53 315 5.0 5.0 0.00 0.00 0.00 32 975.6
20200125130214 53 315 5.0 5.0 0.00 0.00 0.00 32 976.0
20200125125713 53 315 5.0 5.0 0.00 0.00 0.00 32 976.0
20200125125212 53 315 5.0 5.0 0.00 0.00 0.00 32 976.0
20200125124710 52 315 5.0 5.0 0.00 0.00 0.00 32 976.0
20200125124209 52 315 5.0 5.0 0.00 0.00 0.00 32 976.0
20200125123707 51 315 5.0 5.0 0.00 0.00 0.00 33 976.0
20200125123206 51 315 5.0 5.0 0.00 0.00 0.00 33 976.0
20200125122706 51 315 5.0 5.0 0.00 0.00 0.00 33 976.0
20200125122205 51 315 5.0 5.0 0.00 0.00 0.00 33 976.0
20200125121703 51 315 5.0 5.0 0.00 0.00 0.00 33 976.0
20200125121202 50 315 5.0 5.0 0.00 0.00 0.00 34 976.0
20200125120701 50 315 5.0 5.0 0.00 0.00 0.00 34 976.0
20200125120157 50 315 5.0 5.0 0.00 0.00 0.00 33 976.0
20200125115656 51 315 5.0 5.0 0.00 0.00 0.00 34 976.0
20200125115155 51 315 5.0 5.0 0.00 0.00 0.00 34 976.0
20200125114652 51 315 5.0 5.0 0.00 0.00 0.00 34 976.0
20200125114151 50 315 5.0 5.0 0.00 0.00 0.00 34 976.0
20200125113650 50 315 5.0 5.0 0.00 0.00 0.00 35 976.0
20200125113149 50 315 5.0 5.0 0.00 0.00 0.00 35 976.0
20200125112648 49 315 5.0 5.0 0.00 0.00 0.00 35 976.0
20200125112147 49 315 5.0 5.0 0.00 0.00 0.00 35 976.3
20200125111645 49 315 5.0 5.0 0.00 0.00 0.00 35 976.3
20200125111144 49 315 5.0 5.0 0.00 0.00 0.00 35 976.3
20200125110643 49 315 5.0 5.0 0.00 0.00 0.00 35 976.3
20200125110142 48 315 5.0 5.0 0.00 0.00 0.00 36 976.3
20200125105641 48 315 5.0 5.0 0.00 0.00 0.00 36 976.3
20200125105140 48 315 5.0 5.0 0.00 0.00 0.00 36 976.3
20200125104637 47 315 5.0 7.0 0.00 0.00 0.00 36 976.3
20200125104136 47 315 5.0 7.0 0.00 0.00 0.00 36 976.3
20200125103635 47 315 5.0 7.0 0.00 0.00 0.00 36 976.3
20200125103134 47 315 5.0 6.0 0.00 0.00 0.00 36 976.3
20200125102633 47 315 5.0 5.0 0.00 0.00 0.00 36 976.6
20200125102132 47 315 5.0 5.0 0.00 0.00 0.00 36 976.6
20200125101631 47 315 5.0 5.0 0.00 0.00 0.00 36 976.6
20200125101130 47 315 5.0 5.0 0.00 0.00 0.00 37 976.6
20200125100628 47 315 5.0 5.0 0.00 0.00 0.00 37 976.6
20200125100127 47 315 5.0 5.0 0.00 0.00 0.00 38 976.6
20200125095626 47 315 5.0 7.0 0.00 0.00 0.00 38 976.6
20200125095125 46 315 5.0 7.0 0.00 0.00 0.00 39 976.6
20200125094624 46 315 5.0 7.0 0.00 0.00 0.00 39 976.6
20200125094123 46 315 5.0 7.0 0.00 0.00 0.00 39 976.6
20200125093622 46 315 5.0 7.0 0.00 0.00 0.00 39 977.0
20200125093120 46 315 5.0 7.0 0.00 0.00 0.00 38 977.0
20200125092620 46 315 5.0 5.0 0.00 0.00 0.00 38 977.0
20200125092119 46 315 5.0 5.0 0.00 0.00 0.00 38 977.0
20200125091117 46 315 5.0 5.0 0.00 0.00 0.00 38 977.0
20200125090616 46 315 5.0 5.0 0.00 0.00 0.00 39 977.0
20200125090115 45 315 5.0 5.0 0.00 0.00 0.00 38 977.0
20200125085614 45 315 5.0 5.0 0.00 0.00 0.00 38 977.3
20200125085113 46 315 5.0 5.0 0.00 0.00 0.00 37 977.0
20200125084612 46 315 5.0 5.0 0.00 0.00 0.00 39 977.0
20200125084111 45 315 5.0 5.0 0.00 0.00 0.00 40 977.0
20200125083610 45 315 5.0 5.0 0.00 0.00 0.00 41 977.0
20200125083109 44 315 5.0 5.0 0.00 0.00 0.00 40 977.0
20200125082609 44 315 5.0 5.0 0.00 0.00 0.00 40 977.0
20200125082107 43 315 5.0 5.0 0.00 0.00 0.00 41 977.0
20200125081606 43 315 5.0 5.0 0.00 0.00 0.00 41 977.0
20200125081104 43 315 5.0 5.0 0.00 0.00 0.00 42 977.0
20200125080604 43 315 5.0 5.0 0.00 0.00 0.00 41 977.0
20200125080102 42 315 5.0 5.0 0.00 0.00 0.00 42 977.3
20200125075601 42 315 5.0 7.0 0.00 0.00 0.00 42 977.0
20200125075100 41 315 5.0 7.0 0.00 0.00 0.00 44 977.0
20200125074559 41 315 5.0 5.0 0.00 0.00 0.00 44 977.0
20200125074058 40 315 5.0 5.0 0.00 0.00 0.00 44 977.0
20200125073557 38 315 5.0 5.0 0.00 0.00 0.00 47 977.0
20200125073055 36 315 5.0 5.0 0.00 0.00 0.00 49 977.3
20200125072554 34 315 5.0 5.0 0.00 0.00 0.00 51 977.3
20200125072053 32 315 5.0 5.0 0.00 0.00 0.00 52 977.3
20200125071552 31 315 5.0 5.0 0.00 0.00 0.00 54 977.3
20200125071051 30 315 5.0 5.0 0.00 0.00 0.00 53 977.7
20200125070550 30 315 5.0 5.0 0.00 0.00 0.00 55 977.7
20200125070049 29 315 5.0 5.0 0.00 0.00 0.00 54 977.7
20200125065548 29 315 5.0 5.0 0.00 0.00 0.00 54 977.7
20200125065047 28 315 5.0 5.0 0.00 0.00 0.00 53 977.7
20200125064546 28 315 5.0 5.0 0.00 0.00 0.00 53 977.7
20200125064045 28 315 5.0 5.0 0.00 0.00 0.00 53 977.7
20200125063545 28 315 5.0 5.0 0.00 0.00 0.00 53 977.7
20200125063043 28 315 5.0 5.0 0.00 0.00 0.00 53 977.7
20200125062542 28 315 5.0 5.0 0.00 0.00 0.00 52 977.3
20200125062041 28 315 5.0 5.0 0.00 0.00 0.00 53 977.3
20200125061540 28 315 5.0 5.0 0.00 0.00 0.00 52 977.3
20200125061039 28 315 5.0 5.0 0.00 0.00 0.00 51 977.3
20200125060538 28 315 5.0 5.0 0.00 0.00 0.00 50 977.3
20200125060037 28 315 5.0 5.0 0.00 0.00 0.00 51 977.0
20200125055537 28 315 5.0 5.0 0.00 0.00 0.00 49 977.0